Time,TemperatureF,DewpointF,PressureIn,WindDirection,WindDirectionDegrees,WindSpeedMPH,WindSpeedGustMPH,Humidity,HourlyPrecipIn,Conditions,Clouds,dailyrainin,SolarRadiationWatts/m^2,SoftwareType,DateUTC
2013-11-12 00:00:00,50.3,35.1,29.94,SW,225,2.0,17.0,56,0.00,,,0.00,0000,Weather View 32 v70,2013-11-12 05:00:00,
2013-11-12 00:05:00,50.3,35.1,29.94,WSW,248,4.0,17.0,56,0.00,,,0.00,0000,Weather View 32 v70,2013-11-12 05:05:00,
2013-11-12 00:10:00,50.1,35.0,29.94,SW,225,3.0,17.0,56,0.00,,,0.00,0000,Weather View 32 v70,2013-11-12 05:10:00,
2013-11-12 00:15:00,50.3,35.1,29.93,West,270,2.0,35.0,56,0.00,,,0.00,0008,Weather View 32 v70,2013-11-12 05:15:00,
2013-11-12 00:20:00,50.3,34.7,29.93,SW,225,2.0,35.0,55,0.00,,,0.00,0000,Weather View 32 v70,2013-11-12 05:20:00,
2013-11-12 00:25:00,50.3,34.2,29.93,West,270,6.0,35.0,54,0.00,,,0.00,0008,Weather View 32 v70,2013-11-12 05:25:00,
2013-11-12 00:30:00,50.4,34.3,29.93,West,270,7.0,35.0,54,0.00,,,0.00,0000,Weather View 32 v70,2013-11-12 05:30:00,
2013-11-12 00:35:00,50.4,34.3,29.93,WSW,248,0.0,35.0,54,0.00,,,0.00,0000,Weather View 32 v70,2013-11-12 05:35:00,
2013-11-12 00:45:00,50.4,34.3,29.93,WNW,293,0.0,35.0,54,0.00,,,0.00,0000,Weather View 32 v70,2013-11-12 05:45:00,
2013-11-12 00:55:00,50.3,34.2,29.93,WSW,248,3.0,35.0,54,0.00,,,0.00,0000,Weather View 32 v70,2013-11-12 05:55:00,
2013-11-12 01:05:00,50.1,34.6,29.91,WSW,248,0.0,35.0,55,0.00,,,0.00,0000,Weather View 32 v70,2013-11-12 06:05:00,
2013-11-12 01:15:00,50.0,34.9,29.92,WSW,248,1.0,25.0,56,0.00,,,0.00,0000,Weather View 32 v70,2013-11-12 06:15:00,
2013-11-12 01:20:00,50.0,34.9,29.92,WSW,248,3.0,25.0,56,0.00,,,0.00,0000,Weather View 32 v70,2013-11-12 06:20:00,
2013-11-12 01:25:00,50.0,34.9,29.92,WSW,248,2.0,25.0,56,0.00,,,0.00,0000,Weather View 32 v70,2013-11-12 06:25:00,
2013-11-12 01:30:00,50.0,35.4,29.92,SW,225,4.0,25.0,57,0.00,,,0.00,0016,Weather View 32 v70,2013-11-12 06:30:00,
2013-11-12 01:35:00,49.9,35.3,29.92,WSW,248,3.0,25.0,57,0.00,,,0.00,0000,Weather View 32 v70,2013-11-12 06:35:00,
2013-11-12 01:45:00,49.9,34.8,29.92,SSW,203,3.0,20.0,56,0.00,,,0.00,0000,Weather View 32 v70,2013-11-12 06:45:00,
2013-11-12 01:50:00,49.8,34.7,29.91,WNW,293,0.0,20.0,56,0.00,,,0.00,0000,Weather View 32 v70,2013-11-12 06:50:00,
2013-11-12 01:57:00,49.8,34.3,29.91,WNW,293,1.0,20.0,55,0.00,,,0.00,0000,Weather View 32 v70,2013-11-12 06:57:00,
2013-11-12 02:05:00,49.7,34.6,29.91,WNW,293,2.0,20.0,56,0.00,,,0.00,0000,Weather View 32 v70,2013-11-12 07:05:00,
2013-11-12 02:15:00,49.6,34.5,29.91,South,180,7.0,20.0,56,0.00,,,0.00,0008,Weather View 32 v70,2013-11-12 07:15:00,
2013-11-12 02:20:00,49.6,34.9,29.91,WNW,293,0.0,20.0,57,0.00,,,0.00,0000,Weather View 32 v70,2013-11-12 07:20:00,
2013-11-12 02:25:00,49.5,34.8,29.91,WSW,248,0.0,20.0,57,0.00,,,0.00,0000,Weather View 32 v70,2013-11-12 07:25:00,
2013-11-12 02:30:00,49.5,35.3,29.91,West,270,0.0,12.0,58,0.00,,,0.00,0000,Weather View 32 v70,2013-11-12 07:30:00,
2013-11-12 02:40:00,49.4,35.2,29.91,West,270,0.0,12.0,58,0.00,,,0.00,0000,Weather View 32 v70,2013-11-12 07:40:00,
2013-11-12 02:45:00,49.4,35.2,29.91,SW,225,1.0,12.0,58,0.00,,,0.00,0000,Weather View 32 v70,2013-11-12 07:45:00,
2013-11-12 02:55:00,49.4,34.7,29.91,SW,225,5.0,10.0,57,0.00,,,0.00,0000,Weather View 32 v70,2013-11-12 07:55:00,
2013-11-12 03:05:00,49.5,34.8,29.91,West,270,2.0,10.0,57,0.00,,,0.00,0000,Weather View 32 v70,2013-11-12 08:05:00,
2013-11-12 03:10:00,49.4,34.3,29.91,West,270,0.0,10.0,56,0.00,,,0.00,0000,Weather View 32 v70,2013-11-12 08:10:00,
2013-11-12 03:15:00,49.2,34.2,29.91,West,270,1.0,9.0,56,0.00,,,0.00,0000,Weather View 32 v70,2013-11-12 08:15:00,
2013-11-12 03:25:00,49.4,33.8,29.90,West,270,0.0,16.0,55,0.00,,,0.00,0000,Weather View 32 v70,2013-11-12 08:25:00,
2013-11-12 03:30:00,49.4,33.4,29.90,WNW,293,0.0,16.0,54,0.00,,,0.00,0000,Weather View 32 v70,2013-11-12 08:30:00,
2013-11-12 03:40:00,49.4,32.9,29.91,WNW,293,2.0,16.0,53,0.00,,,0.00,0000,Weather View 32 v70,2013-11-12 08:40:00,
2013-11-12 03:45:00,49.2,32.8,29.90,NW,315,0.0,16.0,53,0.00,,,0.00,0000,Weather View 32 v70,2013-11-12 08:45:00,
2013-11-12 03:50:00,49.1,32.2,29.89,West,270,0.0,16.0,52,0.00,,,0.00,0000,Weather View 32 v70,2013-11-12 08:50:00,
2013-11-12 03:55:00,49.0,32.1,29.89,West,270,0.0,16.0,52,0.00,,,0.00,0008,Weather View 32 v70,2013-11-12 08:55:00,
2013-11-12 04:05:00,48.9,32.0,29.91,WSW,248,0.0,16.0,52,0.00,,,0.00,0000,Weather View 32 v70,2013-11-12 09:05:00,
2013-11-12 04:15:00,48.8,30.9,29.90,West,270,0.0,16.0,50,0.00,,,0.00,0000,Weather View 32 v70,2013-11-12 09:15:00,
2013-11-12 04:20:00,48.8,30.9,29.91,West,270,0.0,16.0,50,0.00,,,0.00,0000,Weather View 32 v70,2013-11-12 09:20:00,
2013-11-12 04:25:00,48.8,30.9,29.91,NNW,338,0.0,11.0,50,0.00,,,0.00,0000,Weather View 32 v70,2013-11-12 09:25:00,
2013-11-12 04:30:00,48.7,30.8,29.92,WSW,248,0.0,11.0,50,0.00,,,0.00,0000,Weather View 32 v70,2013-11-12 09:30:00,
2013-11-12 04:40:00,48.3,31.0,29.92,SW,225,0.0,11.0,51,0.00,,,0.00,0000,Weather View 32 v70,2013-11-12 09:40:00,
2013-11-12 04:50:00,48.3,31.5,29.92,NW,315,2.0,11.0,52,0.00,,,0.00,0000,Weather View 32 v70,2013-11-12 09:50:00,
2013-11-12 04:55:00,48.2,31.9,29.92,NW,315,0.0,11.0,53,0.00,,,0.00,0000,Weather View 32 v70,2013-11-12 09:55:00,
2013-11-12 05:00:00,48.1,31.8,29.92,West,270,0.0,11.0,53,0.00,,,0.00,0000,Weather View 32 v70,2013-11-12 10:00:00,
2013-11-12 05:05:00,47.9,32.0,29.92,West,270,0.0,11.0,54,0.00,,,0.00,0008,Weather View 32 v70,2013-11-12 10:05:00,
2013-11-12 05:15:00,47.6,31.7,29.92,South,180,3.0,11.0,54,0.00,,,0.00,0000,Weather View 32 v70,2013-11-12 10:15:00,
2013-11-12 05:25:00,47.1,33.5,29.94,WSW,248,2.0,11.0,59,0.00,,,0.00,0000,Weather View 32 v70,2013-11-12 10:25:00,
2013-11-12 05:30:00,46.5,33.8,29.95,WNW,293,6.0,11.0,61,0.00,,,0.00,0000,Weather View 32 v70,2013-11-12 10:30:00,
2013-11-12 05:40:00,45.3,35.0,29.94,WSW,248,0.0,24.0,67,0.00,,,0.00,0016,Weather View 32 v70,2013-11-12 10:40:00,
2013-11-12 05:45:00,44.9,35.6,29.94,NW,315,0.0,24.0,70,0.00,,,0.00,0000,Weather View 32 v70,2013-11-12 10:45:00,
2013-11-12 05:50:00,44.5,35.7,29.94,NNW,338,2.0,24.0,71,0.00,,,0.00,0000,Weather View 32 v70,2013-11-12 10:50:00,
2013-11-12 05:59:00,44.1,35.3,29.95,West,270,3.0,24.0,71,0.00,,,0.00,0000,Weather View 32 v70,2013-11-12 10:59:00,
2013-11-12 06:05:00,43.4,35.6,29.95,North,0,0.0,24.0,74,0.00,,,0.00,0000,Weather View 32 v70,2013-11-12 11:05:00,
2013-11-12 06:15:00,42.8,35.8,29.95,West,270,0.0,24.0,76,0.01,,,0.01,0000,Weather View 32 v70,2013-11-12 11:15:00,
2013-11-12 06:20:00,42.6,36.2,29.96,NW,315,0.0,24.0,78,0.01,,,0.01,0000,Weather View 32 v70,2013-11-12 11:20:00,
2013-11-12 06:25:00,42.4,36.0,29.96,NW,315,0.0,24.0,78,0.01,,,0.01,0000,Weather View 32 v70,2013-11-12 11:25:00,
2013-11-12 06:35:00,41.5,35.4,29.97,NW,315,3.0,24.0,79,0.01,,,0.01,0000,Weather View 32 v70,2013-11-12 11:35:00,
2013-11-12 06:40:00,40.6,34.6,29.97,West,270,5.0,9.0,79,0.01,,,0.01,0000,Weather View 32 v70,2013-11-12 11:40:00,
2013-11-12 06:45:00,40.0,34.3,29.98,NNW,338,1.0,9.0,80,0.01,,,0.01,0000,Weather View 32 v70,2013-11-12 11:45:00,
2013-11-12 06:50:00,39.6,33.9,29.98,North,0,3.0,9.0,80,0.01,,,0.01,0000,Weather View 32 v70,2013-11-12 11:50:00,
2013-11-12 07:00:00,39.1,33.5,30.00,NW,315,0.0,9.0,80,0.01,,,0.01,0000,Weather View 32 v70,2013-11-12 12:00:00,
2013-11-12 07:10:00,38.6,33.2,30.00,NNW,338,3.0,9.0,81,0.00,,,0.01,0024,Weather View 32 v70,2013-11-12 12:10:00,
2013-11-12 07:15:00,38.3,33.0,30.00,NNW,338,3.0,9.0,81,0.00,,,0.01,0008,Weather View 32 v70,2013-11-12 12:15:00,
2013-11-12 07:25:00,38.1,33.1,30.01,North,0,3.0,9.0,82,0.00,,,0.01,0000,Weather View 32 v70,2013-11-12 12:25:00,
2013-11-12 07:30:00,37.8,32.5,30.01,NNW,338,3.0,10.0,81,0.00,,,0.01,0032,Weather View 32 v70,2013-11-12 12:30:00,
2013-11-12 07:35:00,37.8,32.5,30.01,NNW,338,1.0,10.0,81,0.00,,,0.01,0024,Weather View 32 v70,2013-11-12 12:35:00,
2013-11-12 07:45:00,37.4,32.4,30.01,NW,315,2.0,10.0,82,0.00,,,0.01,0008,Weather View 32 v70,2013-11-12 12:45:00,
2013-11-12 07:55:00,37.1,32.4,30.02,WNW,293,0.0,10.0,83,0.01,,,0.02,0032,Weather View 32 v70,2013-11-12 12:55:00,
2013-11-12 08:00:00,37.0,32.6,30.03,WNW,293,0.0,10.0,84,0.01,,,0.02,0024,Weather View 32 v70,2013-11-12 13:00:00,
2013-11-12 08:10:00,37.0,32.3,30.03,NNW,338,0.0,10.0,83,0.01,,,0.02,0008,Weather View 32 v70,2013-11-12 13:10:00,
2013-11-12 08:15:00,36.9,32.2,30.03,NE,45,0.0,10.0,83,0.01,,,0.02,0048,Weather View 32 v70,2013-11-12 13:15:00,
2013-11-12 08:20:00,36.6,32.0,30.03,NW,315,2.0,10.0,83,0.01,,,0.02,0032,Weather View 32 v70,2013-11-12 13:20:00,
2013-11-12 08:25:00,36.3,31.9,30.03,NW,315,0.0,10.0,84,0.01,,,0.02,0048,Weather View 32 v70,2013-11-12 13:25:00,
2013-11-12 08:35:00,36.1,32.0,30.03,NNW,338,1.0,8.0,85,0.01,,,0.02,0040,Weather View 32 v70,2013-11-12 13:35:00,
2013-11-12 08:40:00,36.0,31.9,30.03,NNW,338,0.0,8.0,85,0.02,,,0.03,0048,Weather View 32 v70,2013-11-12 13:40:00,
2013-11-12 08:50:00,36.0,32.2,30.04,North,0,2.0,8.0,86,0.01,,,0.03,0040,Weather View 32 v70,2013-11-12 13:50:00,
2013-11-12 08:55:00,35.7,32.0,30.04,North,0,1.0,8.0,86,0.01,,,0.03,0056,Weather View 32 v70,2013-11-12 13:55:00,
2013-11-12 09:00:00,35.4,31.6,30.04,NNE,23,6.0,9.0,86,0.01,,,0.03,0032,Weather View 32 v70,2013-11-12 14:00:00,
2013-11-12 09:05:00,35.1,31.3,30.05,NW,315,3.0,10.0,86,0.01,,,0.03,0048,Weather View 32 v70,2013-11-12 14:05:00,
2013-11-12 09:15:00,34.5,31.0,30.05,NNW,338,0.0,12.0,87,0.02,,,0.04,0016,Weather View 32 v70,2013-11-12 14:15:00,
2013-11-12 09:20:00,34.3,30.5,30.05,NNW,338,5.0,12.0,86,0.02,,,0.04,0024,Weather View 32 v70,2013-11-12 14:20:00,
2013-11-12 09:25:00,33.6,29.9,30.05,NNE,23,2.0,12.0,86,0.02,,,0.04,0016,Weather View 32 v70,2013-11-12 14:25:00,
2013-11-12 09:30:00,33.4,29.9,30.05,NNE,23,3.0,12.0,87,0.02,,,0.04,0040,Weather View 32 v70,2013-11-12 14:30:00,
2013-11-12 09:40:00,32.5,28.5,30.06,NNW,338,11.0,13.0,85,0.01,,,0.04,0072,Weather View 32 v70,2013-11-12 14:40:00,
2013-11-12 09:50:00,32.3,28.5,30.06,WNW,293,5.0,13.0,86,0.01,,,0.04,0032,Weather View 32 v70,2013-11-12 14:50:00,
2013-11-12 10:00:00,32.0,28.3,30.06,NNE,23,0.0,13.0,86,0.01,,,0.04,0056,Weather View 32 v70,2013-11-12 15:00:00,
2013-11-12 10:10:00,31.9,28.2,30.06,WNW,293,2.0,13.0,86,0.01,,,0.04,0048,Weather View 32 v70,2013-11-12 15:10:00,
2013-11-12 10:15:00,31.7,28.0,30.06,NNW,338,0.0,13.0,86,0.00,,,0.04,0032,Weather View 32 v70,2013-11-12 15:15:00,
2013-11-12 10:20:00,31.7,28.0,30.06,NNW,338,2.0,13.0,86,0.01,,,0.05,0056,Weather View 32 v70,2013-11-12 15:20:00,
2013-11-12 10:30:00,31.8,27.5,30.06,North,0,1.0,13.0,84,0.01,,,0.05,0072,Weather View 32 v70,2013-11-12 15:30:00,
2013-11-12 10:40:00,32.0,27.7,30.06,North,0,0.0,13.0,84,0.01,,,0.05,0056,Weather View 32 v70,2013-11-12 15:40:00,
2013-11-12 10:50:00,32.1,27.9,30.06,North,0,0.0,10.0,84,0.01,,,0.05,0056,Weather View 32 v70,2013-11-12 15:50:00,
2013-11-12 11:00:00,32.1,27.3,30.07,North,0,0.0,10.0,82,0.01,,,0.05,0032,Weather View 32 v70,2013-11-12 16:00:00,
2013-11-12 11:05:00,32.1,27.0,30.07,NNW,338,0.0,10.0,81,0.01,,,0.05,0064,Weather View 32 v70,2013-11-12 16:05:00,
2013-11-12 11:15:00,32.0,26.8,30.07,North,0,2.0,10.0,81,0.01,,,0.05,0064,Weather View 32 v70,2013-11-12 16:15:00,
2013-11-12 11:20:00,31.9,26.5,30.07,West,270,2.0,10.0,80,0.00,,,0.05,0048,Weather View 32 v70,2013-11-12 16:20:00,
2013-11-12 11:30:00,32.0,25.9,30.07,NW,315,3.0,12.0,78,0.00,,,0.05,0064,Weather View 32 v70,2013-11-12 16:30:00,
2013-11-12 11:35:00,31.9,25.5,30.07,WNW,293,5.0,12.0,77,0.00,,,0.05,0040,Weather View 32 v70,2013-11-12 16:35:00,
2013-11-12 11:40:00,31.8,25.4,30.06,NNW,338,3.0,12.0,77,0.00,,,0.05,0064,Weather View 32 v70,2013-11-12 16:40:00,
2013-11-12 11:50:00,31.8,25.4,30.06,North,0,0.0,12.0,77,0.00,,,0.05,0080,Weather View 32 v70,2013-11-12 16:50:00,
2013-11-12 12:00:00,32.1,24.8,30.06,North,0,0.0,12.0,74,0.00,,,0.05,0088,Weather View 32 v70,2013-11-12 17:00:00,
2013-11-12 12:05:00,32.4,24.3,30.06,NNW,338,0.0,12.0,72,0.00,,,0.05,0080,Weather View 32 v70,2013-11-12 17:05:00,
2013-11-12 12:15:00,32.6,24.6,30.06,NNW,338,0.0,12.0,72,0.00,,,0.05,0080,Weather View 32 v70,2013-11-12 17:15:00,
2013-11-12 12:20:00,32.8,24.8,30.06,NNW,338,0.0,12.0,72,0.00,,,0.05,0056,Weather View 32 v70,2013-11-12 17:20:00,
2013-11-12 12:25:00,32.7,24.3,30.05,North,0,0.0,8.0,71,0.00,,,0.05,0064,Weather View 32 v70,2013-11-12 17:25:00,
2013-11-12 12:30:00,32.8,24.4,30.05,NW,315,0.0,8.0,71,0.00,,,0.05,0064,Weather View 32 v70,2013-11-12 17:30:00,
2013-11-12 12:40:00,33.0,24.3,30.06,NW,315,1.0,8.0,70,0.00,,,0.05,0056,Weather View 32 v70,2013-11-12 17:40:00,
2013-11-12 12:50:00,33.3,22.4,30.05,NW,315,1.0,7.0,64,0.00,,,0.05,0064,Weather View 32 v70,2013-11-12 17:50:00,
2013-11-12 12:55:00,33.3,21.3,30.05,NE,45,0.0,7.0,61,0.00,,,0.05,0072,Weather View 32 v70,2013-11-12 17:55:00,
2013-11-12 13:00:00,33.3,19.3,30.06,NNW,338,5.0,8.0,56,0.00,,,0.05,0064,Weather View 32 v70,2013-11-12 18:00:00,
2013-11-12 13:05:00,33.3,19.3,30.06,NNW,338,0.0,9.0,56,0.00,,,0.05,0080,Weather View 32 v70,2013-11-12 18:05:00,
2013-11-12 13:15:00,33.3,19.3,30.06,NNW,338,0.0,9.0,56,0.00,,,0.05,0040,Weather View 32 v70,2013-11-12 18:15:00,
2013-11-12 13:25:00,33.3,19.3,30.06,West,270,2.0,9.0,56,0.00,,,0.05,0064,Weather View 32 v70,2013-11-12 18:25:00,
2013-11-12 13:35:00,33.4,18.5,30.06,North,0,2.0,9.0,54,0.00,,,0.05,0112,Weather View 32 v70,2013-11-12 18:35:00,
2013-11-12 13:45:00,33.7,20.1,30.06,South,180,0.0,9.0,57,0.00,,,0.05,0128,Weather View 32 v70,2013-11-12 18:45:00,
2013-11-12 13:50:00,33.8,19.3,30.07,North,0,1.0,9.0,55,0.00,,,0.05,0120,Weather View 32 v70,2013-11-12 18:50:00,
2013-11-12 14:00:00,33.9,19.9,30.07,NNW,338,0.0,9.0,56,0.00,,,0.05,0072,Weather View 32 v70,2013-11-12 19:00:00,
2013-11-12 14:05:00,33.9,19.5,30.07,WNW,293,2.0,9.0,55,0.00,,,0.05,0056,Weather View 32 v70,2013-11-12 19:05:00,
2013-11-12 14:15:00,34.1,20.0,30.07,North,0,0.0,8.0,56,0.00,,,0.05,0072,Weather View 32 v70,2013-11-12 19:15:00,
2013-11-12 14:20:00,34.1,19.1,30.07,North,0,3.0,8.0,54,0.00,,,0.05,0056,Weather View 32 v70,2013-11-12 19:20:00,
2013-11-12 14:25:00,33.9,19.0,30.07,North,0,4.0,7.0,54,0.00,,,0.05,0056,Weather View 32 v70,2013-11-12 19:25:00,
2013-11-12 14:30:00,33.9,19.0,30.08,WNW,293,0.0,8.0,54,0.00,,,0.05,0056,Weather View 32 v70,2013-11-12 19:30:00,
2013-11-12 14:40:00,33.7,18.4,30.08,NW,315,0.0,8.0,53,0.00,,,0.05,0040,Weather View 32 v70,2013-11-12 19:40:00,
2013-11-12 14:50:00,33.6,16.9,30.09,NNW,338,0.0,11.0,50,0.00,,,0.05,0032,Weather View 32 v70,2013-11-12 19:50:00,
2013-11-12 15:00:00,33.4,17.2,30.10,North,0,3.0,11.0,51,0.00,,,0.05,0048,Weather View 32 v70,2013-11-12 20:00:00,
2013-11-12 15:05:00,33.3,17.1,30.10,WNW,293,0.0,11.0,51,0.00,,,0.05,0024,Weather View 32 v70,2013-11-12 20:05:00,
2013-11-12 15:15:00,33.2,17.4,30.09,WNW,293,0.0,11.0,52,0.00,,,0.05,0016,Weather View 32 v70,2013-11-12 20:15:00,
2013-11-12 15:20:00,33.0,17.3,30.09,NNW,338,0.0,11.0,52,0.00,,,0.05,0040,Weather View 32 v70,2013-11-12 20:20:00,
2013-11-12 15:30:00,32.8,16.7,30.09,NNW,338,3.0,11.0,51,0.00,,,0.05,0040,Weather View 32 v70,2013-11-12 20:30:00,
2013-11-12 15:40:00,32.8,18.0,30.11,NW,315,0.0,11.0,54,0.00,,,0.05,0024,Weather View 32 v70,2013-11-12 20:40:00,
2013-11-12 15:45:00,32.7,17.9,30.11,NNW,338,3.0,11.0,54,0.00,,,0.05,0016,Weather View 32 v70,2013-11-12 20:45:00,
2013-11-12 15:50:00,32.6,16.9,30.11,NW,315,0.0,10.0,52,0.00,,,0.05,0000,Weather View 32 v70,2013-11-12 20:50:00,
2013-11-12 15:55:00,32.5,18.5,30.11,NW,315,0.0,9.0,56,0.00,,,0.05,0008,Weather View 32 v70,2013-11-12 20:55:00,
2013-11-12 16:00:00,32.4,18.0,30.12,NNW,338,0.0,9.0,55,0.00,,,0.05,0016,Weather View 32 v70,2013-11-12 21:00:00,
2013-11-12 16:05:00,32.3,17.5,30.12,NW,315,0.0,9.0,54,0.00,,,0.05,0000,Weather View 32 v70,2013-11-12 21:05:00,
2013-11-12 16:15:00,32.1,17.8,30.12,WNW,293,0.0,7.0,55,0.00,,,0.05,0000,Weather View 32 v70,2013-11-12 21:15:00,
2013-11-12 16:20:00,32.0,18.1,30.12,North,0,0.0,7.0,56,0.00,,,0.05,0000,Weather View 32 v70,2013-11-12 21:20:00,
2013-11-12 16:30:00,31.9,18.0,30.12,NNW,338,0.0,7.0,56,0.00,,,0.05,0008,Weather View 32 v70,2013-11-12 21:30:00,
2013-11-12 16:40:00,31.7,16.9,30.13,NW,315,1.0,7.0,54,0.00,,,0.05,0016,Weather View 32 v70,2013-11-12 21:40:00,
2013-11-12 16:45:00,31.7,16.5,30.13,NNE,23,0.0,9.0,53,0.00,,,0.05,0000,Weather View 32 v70,2013-11-12 21:45:00,
2013-11-12 16:50:00,31.7,16.9,30.13,NW,315,2.0,10.0,54,0.00,,,0.05,0008,Weather View 32 v70,2013-11-12 21:50:00,
2013-11-12 17:00:00,31.6,16.0,30.14,NW,315,2.0,10.0,52,0.00,,,0.05,0000,Weather View 32 v70,2013-11-12 22:00:00,
2013-11-12 17:05:00,31.6,17.7,30.14,WNW,293,4.0,10.0,56,0.00,,,0.05,0000,Weather View 32 v70,2013-11-12 22:05:00,
2013-11-12 17:15:00,31.5,16.3,30.14,NW,315,0.0,10.0,53,0.00,,,0.05,0008,Weather View 32 v70,2013-11-12 22:15:00,
2013-11-12 17:20:00,31.4,15.7,30.14,North,0,4.0,10.0,52,0.00,,,0.05,0000,Weather View 32 v70,2013-11-12 22:20:00,
2013-11-12 17:25:00,31.4,17.0,30.14,North,0,4.0,10.0,55,0.00,,,0.05,0008,Weather View 32 v70,2013-11-12 22:25:00,
2013-11-12 17:30:00,31.2,17.8,30.14,NW,315,0.0,10.0,57,0.00,,,0.05,0000,Weather View 32 v70,2013-11-12 22:30:00,
2013-11-12 17:35:00,31.2,16.9,30.15,NW,315,0.0,10.0,55,0.00,,,0.05,0008,Weather View 32 v70,2013-11-12 22:35:00,
2013-11-12 17:45:00,31.2,16.5,30.15,NNW,338,0.0,10.0,54,0.00,,,0.05,0000,Weather View 32 v70,2013-11-12 22:45:00,
2013-11-12 17:50:00,31.1,17.7,30.15,NNW,338,4.0,10.0,57,0.00,,,0.05,0000,Weather View 32 v70,2013-11-12 22:50:00,
2013-11-12 17:55:00,31.0,16.7,30.15,North,0,1.0,9.0,55,0.00,,,0.05,0000,Weather View 32 v70,2013-11-12 22:55:00,
2013-11-12 18:00:00,30.9,17.4,30.15,NW,315,0.0,9.0,57,0.00,,,0.05,0000,Weather View 32 v70,2013-11-12 23:00:00,
2013-11-12 18:06:00,30.9,17.0,30.15,North,0,0.0,7.0,56,0.00,,,0.05,0008,Weather View 32 v70,2013-11-12 23:06:00,
2013-11-12 18:15:00,30.8,16.9,30.15,NNW,338,0.0,7.0,56,0.00,,,0.05,0008,Weather View 32 v70,2013-11-12 23:15:00,
2013-11-12 18:20:00,30.8,17.3,30.15,North,0,0.0,7.0,57,0.00,,,0.05,0000,Weather View 32 v70,2013-11-12 23:20:00,
2013-11-12 18:25:00,30.8,17.3,30.15,NNW,338,0.0,7.0,57,0.00,,,0.05,0000,Weather View 32 v70,2013-11-12 23:25:00,
2013-11-12 18:30:00,30.8,16.9,30.15,NW,315,0.0,6.0,56,0.00,,,0.05,0000,Weather View 32 v70,2013-11-12 23:30:00,
2013-11-12 18:40:00,30.8,16.9,30.16,North,0,5.0,8.0,56,0.00,,,0.05,0000,Weather View 32 v70,2013-11-12 23:40:00,
2013-11-12 18:45:00,30.8,16.9,30.16,NW,315,2.0,8.0,56,0.00,,,0.05,0000,Weather View 32 v70,2013-11-12 23:45:00,
2013-11-12 18:50:00,30.8,16.9,30.16,NNW,338,0.0,8.0,56,0.00,,,0.05,0000,Weather View 32 v70,2013-11-12 23:50:00,
2013-11-12 18:55:00,30.7,16.8,30.16,North,0,0.0,8.0,56,0.00,,,0.05,0000,Weather View 32 v70,2013-11-12 23:55:00,
2013-11-12 19:00:00,30.7,17.6,30.16,North,0,0.0,8.0,58,0.00,,,0.05,0008,Weather View 32 v70,2013-11-13 00:00:00,
2013-11-12 19:05:00,30.7,17.2,30.16,NNW,338,0.0,8.0,57,0.00,,,0.05,0016,Weather View 32 v70,2013-11-13 00:05:00,
2013-11-12 19:15:00,30.7,17.2,30.16,WNW,293,2.0,8.0,57,0.00,,,0.05,0000,Weather View 32 v70,2013-11-13 00:15:00,
2013-11-12 19:25:00,30.7,17.6,30.17,West,270,3.0,8.0,58,0.00,,,0.05,0000,Weather View 32 v70,2013-11-13 00:25:00,
2013-11-12 19:30:00,30.8,17.7,30.17,NNW,338,0.0,8.0,58,0.00,,,0.05,0000,Weather View 32 v70,2013-11-13 00:30:00,
2013-11-12 19:35:00,30.8,18.1,30.17,North,0,0.0,8.0,59,0.00,,,0.05,0016,Weather View 32 v70,2013-11-13 00:35:00,
2013-11-12 19:40:00,30.6,17.9,30.17,NW,315,0.0,8.0,59,0.00,,,0.05,0000,Weather View 32 v70,2013-11-13 00:40:00,
2013-11-12 19:45:00,30.7,18.0,30.17,WNW,293,0.0,7.0,59,0.00,,,0.05,0000,Weather View 32 v70,2013-11-13 00:45:00,
2013-11-12 19:50:00,30.5,17.8,30.17,WSW,248,6.0,7.0,59,0.00,,,0.05,0000,Weather View 32 v70,2013-11-13 00:50:00,
2013-11-12 20:00:00,30.5,17.8,30.17,North,0,1.0,7.0,59,0.00,,,0.05,0000,Weather View 32 v70,2013-11-13 01:00:00,
2013-11-12 20:05:00,30.3,17.3,30.17,NW,315,0.0,7.0,58,0.00,,,0.05,0008,Weather View 32 v70,2013-11-13 01:05:00,
2013-11-12 20:15:00,30.5,17.8,30.17,NW,315,3.0,7.0,59,0.00,,,0.05,0000,Weather View 32 v70,2013-11-13 01:15:00,
2013-11-12 20:20:00,30.5,17.8,30.17,NW,315,1.0,7.0,59,0.00,,,0.05,0000,Weather View 32 v70,2013-11-13 01:20:00,
2013-11-12 20:30:00,30.3,17.7,30.18,NNW,338,0.0,7.0,59,0.00,,,0.05,0000,Weather View 32 v70,2013-11-13 01:30:00,
2013-11-12 20:35:00,30.3,17.3,30.18,NW,315,0.0,9.0,58,0.00,,,0.05,0000,Weather View 32 v70,2013-11-13 01:35:00,
2013-11-12 20:40:00,30.3,17.7,30.18,NNW,338,0.0,9.0,59,0.00,,,0.05,0000,Weather View 32 v70,2013-11-13 01:40:00,
2013-11-12 20:50:00,30.2,17.6,30.18,NW,315,4.0,9.0,59,0.00,,,0.05,0000,Weather View 32 v70,2013-11-13 01:50:00,
2013-11-12 20:55:00,30.2,18.0,30.19,WNW,293,0.0,9.0,60,0.00,,,0.05,0000,Weather View 32 v70,2013-11-13 01:55:00,
2013-11-12 21:00:00,30.0,17.8,30.19,North,0,0.0,9.0,60,0.00,,,0.05,0000,Weather View 32 v70,2013-11-13 02:00:00,
2013-11-12 21:05:00,30.0,18.2,30.18,NW,315,1.0,9.0,61,0.00,,,0.05,0000,Weather View 32 v70,2013-11-13 02:05:00,
2013-11-12 21:15:00,29.9,17.7,30.19,ENE,68,2.0,9.0,60,0.00,,,0.05,0000,Weather View 32 v70,2013-11-13 02:15:00,
2013-11-12 21:20:00,29.8,17.6,30.19,NW,315,0.0,9.0,60,0.00,,,0.05,0000,Weather View 32 v70,2013-11-13 02:20:00,
2013-11-12 21:30:00,29.7,17.1,30.19,WNW,293,2.0,10.0,59,0.00,,,0.05,0000,Weather View 32 v70,2013-11-13 02:30:00,
2013-11-12 21:40:00,29.6,16.6,30.19,NNW,338,4.0,11.0,58,0.00,,,0.05,0000,Weather View 32 v70,2013-11-13 02:40:00,
2013-11-12 21:45:00,29.4,16.1,30.19,NNW,338,3.0,11.0,57,0.00,,,0.05,0000,Weather View 32 v70,2013-11-13 02:45:00,
2013-11-12 21:50:00,29.6,16.6,30.18,NNW,338,0.0,11.0,58,0.00,,,0.05,0008,Weather View 32 v70,2013-11-13 02:50:00,
2013-11-12 22:00:00,29.3,16.0,30.18,WNW,293,0.0,11.0,57,0.00,,,0.05,0000,Weather View 32 v70,2013-11-13 03:00:00,
2013-11-12 22:05:00,29.3,15.6,30.18,NNW,338,0.0,11.0,56,0.00,,,0.05,0016,Weather View 32 v70,2013-11-13 03:05:00,
2013-11-12 22:15:00,29.2,15.1,30.18,NNW,338,2.0,11.0,55,0.00,,,0.05,0000,Weather View 32 v70,2013-11-13 03:15:00,
2013-11-12 22:20:00,29.2,15.1,30.18,NW,315,4.0,11.0,55,0.00,,,0.05,0000,Weather View 32 v70,2013-11-13 03:20:00,
2013-11-12 22:25:00,29.1,14.5,30.18,WNW,293,6.0,11.0,54,0.00,,,0.05,0000,Weather View 32 v70,2013-11-13 03:25:00,
2013-11-12 22:35:00,28.9,15.1,30.18,NW,315,3.0,11.0,56,0.00,,,0.05,0016,Weather View 32 v70,2013-11-13 03:35:00,
2013-11-12 22:45:00,28.9,14.7,30.18,North,0,3.0,11.0,55,0.00,,,0.05,0000,Weather View 32 v70,2013-11-13 03:45:00,
2013-11-12 22:50:00,28.9,13.9,30.18,North,0,2.0,11.0,53,0.00,,,0.05,0000,Weather View 32 v70,2013-11-13 03:50:00,
2013-11-12 22:55:00,28.7,14.1,30.18,NW,315,2.0,11.0,54,0.00,,,0.05,0000,Weather View 32 v70,2013-11-13 03:55:00,
2013-11-12 23:00:00,28.5,14.0,30.17,North,0,0.0,11.0,54,0.00,,,0.00,0000,Weather View 32 v70,2013-11-13 04:00:00,
2013-11-12 23:09:00,28.4,13.5,30.18,North,0,3.0,11.0,53,0.00,,,0.00,0000,Weather View 32 v70,2013-11-13 04:09:00,
2013-11-12 23:15:00,28.2,13.7,30.18,NNW,338,3.0,11.0,54,0.00,,,0.00,0016,Weather View 32 v70,2013-11-13 04:15:00,
2013-11-12 23:20:00,28.3,13.4,30.18,NNW,338,2.0,11.0,53,0.00,,,0.00,0000,Weather View 32 v70,2013-11-13 04:20:00,
2013-11-12 23:30:00,28.0,13.5,30.19,North,0,0.0,14.0,54,0.00,,,0.00,0000,Weather View 32 v70,2013-11-13 04:30:00,
2013-11-12 23:35:00,27.8,13.7,30.19,NNW,338,3.0,14.0,55,0.00,,,0.00,0000,Weather View 32 v70,2013-11-13 04:35:00,
2013-11-12 23:40:00,27.8,13.7,30.19,NNW,338,0.0,14.0,55,0.00,,,0.00,0000,Weather View 32 v70,2013-11-13 04:40:00,
2013-11-12 23:45:00,27.6,13.6,30.19,NNE,23,5.0,14.0,55,0.00,,,0.00,0000,Weather View 32 v70,2013-11-13 04:45:00,
2013-11-12 23:50:00,27.5,13.0,30.19,NNE,23,0.0,14.0,54,0.00,,,0.00,0000,Weather View 32 v70,2013-11-13 04:50:00,